Weather History for Charlottetown, PE

Change the Weather History Date:

Sunday, November 4, 2012

  Actual Average Record
Temperature  
Mean Temperature 46 °F -  
Max Temperature 49 °F 41 °F 64 °F (2007)
Min Temperature 42 °F 28 °F 24 °F (2002)
Degree Days  
Heating Degree Days 20    
Moisture  
Dew Point 44 °F    
Average Humidity 91    
Maximum Humidity 100    
Minimum Humidity 82    
Precipitation  
Precipitation 0.02 in 0.16 in - ()
Sea Level Pressure  
Sea Level Pressure 29.58 in    
Wind  
Wind Speed 7 mph ()    
Max Wind Speed 13 mph    
Max Gust Speed 18 mph    
Visibility 14.9 miles    
Events Rain    
Averages and records for this station are not official NWS values.
T = Trace of Precipitation, MM = Missing Value Source: Averaged Metar Reports

Daily Weather History Graph

Daily Weather History Graph

Search for Another Location

Airport:

Trip Planner

Search our weather history database for the weather conditions in past years. The results will help you decide how hot, cold, wet, or windy it might be!

Date:

Astronomy

Nov. 04, 2012 Rise Set
Actual Time 6:58 AM AST 4:52 PM AST
Civil Twilight 6:26 AM AST 5:24 PM AST
Nautical Twilight 5:51 AM AST 6:00 PM AST
Astronomical Twilight 5:16 AM AST 6:35 PM AST
Moon 9:23 PM AST (11/4) 11:43 AM AST (11/4)
Length of Visible Light 10h 57m
Length of Day
9h 54m
Waning Gibbous, 72% of the Moon is Illuminated
Nov 4
Waning Gibbous
Nov 6
Last Quarter
Nov 13
New
Nov 20
First Quarter
Nov 28
Full

Hourly Weather History & Observations

Time (AST) Temp. Windchill Dew Point Humidity Pressure Visibility Wind Dir Wind Speed Gust Speed Precip Events Conditions
12:00 AM 48.2 °F - 44.6 °F 87% 29.47 in 15.0 mi NW 9.2 mph - N/A   Mostly Cloudy
1:00 AM 48.2 °F - 42.8 °F 82% 29.47 in 15.0 mi NNW 8.1 mph - N/A   Mostly Cloudy
1:00 AM 46.4 °F 42.9 °F 44.6 °F 93% 29.48 in 15.0 mi WNW 6.9 mph - N/A   Mostly Cloudy
2:00 AM 47 °F - 44 °F 86% 29.49 in 15 mi WNW 6.9 mph - -   Scattered Clouds
2:00 AM 46.4 °F 42.4 °F 44.6 °F 93% 29.49 in 15.0 mi WNW 8.1 mph - N/A   Mostly Cloudy
3:00 AM 46.4 °F 42.9 °F 44.6 °F 93% 29.49 in 15.0 mi West 6.9 mph - N/A   Overcast
4:00 AM 46.4 °F 41.9 °F 44.6 °F 93% 29.50 in 15.0 mi West 9.2 mph - N/A   Overcast
5:00 AM 46.4 °F 42.4 °F 44.6 °F 93% 29.52 in 15.0 mi West 8.1 mph - N/A   Overcast
6:00 AM 46.4 °F 42.9 °F 44.6 °F 93% 29.53 in 15.0 mi West 6.9 mph - N/A   Mostly Cloudy
7:00 AM 46.4 °F 44.3 °F 44.6 °F 93% 29.54 in 15.0 mi West 4.6 mph - N/A   Mostly Cloudy
7:29 AM 46.4 °F 42.9 °F 44.6 °F 93% 29.55 in 15.0 mi West 6.9 mph - N/A   Overcast
8:00 AM 47 °F - 44 °F 87% 29.56 in 15 mi West 5.8 mph - -   Overcast
8:00 AM 46.4 °F 42.9 °F 44.6 °F 93% 29.56 in 15.0 mi West 6.9 mph - N/A   Overcast
9:00 AM 48.2 °F - 44.6 °F 87% 29.57 in 15.0 mi West 9.2 mph - N/A   Overcast
9:35 AM 48.2 °F - 44.6 °F 87% 29.57 in 15.0 mi West 8.1 mph - N/A   Mostly Cloudy
10:00 AM 48.2 °F - 44.6 °F 87% 29.57 in 15.0 mi West 6.9 mph - N/A   Mostly Cloudy
11:00 AM 48.2 °F - 44.6 °F 87% 29.57 in 15.0 mi WSW 9.2 mph - N/A   Mostly Cloudy
12:00 PM 50.0 °F - 44.6 °F 82% 29.57 in 15.0 mi West 8.1 mph - N/A   Mostly Cloudy
12:08 PM 48.2 °F - 44.6 °F 87% 29.58 in 12.0 mi West 10.4 mph - N/A Rain Light Rain Showers
1:00 PM 46.4 °F 42.4 °F 46.4 °F 100% 29.59 in 15.0 mi West 8.1 mph - N/A Rain Light Rain Showers
2:00 PM 46 °F - 44 °F 89% 29.60 in 15 mi West 11.5 mph - - Rain Light Rain Showers
2:00 PM 46.4 °F 40.7 °F 44.6 °F 93% 29.60 in 15.0 mi West 12.7 mph - N/A Rain Light Rain Showers
2:14 PM 46.4 °F 41.1 °F 42.8 °F 87% 29.60 in 15.0 mi West 11.5 mph 18.4 mph N/A   Overcast
3:00 PM 46.4 °F 42.9 °F 42.8 °F 87% 29.61 in 15.0 mi West 6.9 mph - N/A   Overcast
4:00 PM 44.6 °F 40.2 °F 42.8 °F 93% 29.63 in 15.0 mi WNW 8.1 mph - N/A   Overcast
5:00 PM 44.6 °F 39.2 °F 41.0 °F 87% 29.65 in 15.0 mi West 10.4 mph - N/A   Overcast
5:38 PM 44.6 °F 40.7 °F 42.8 °F 93% 29.66 in 15.0 mi West 6.9 mph - N/A   Overcast
6:00 PM 44.6 °F 40.2 °F 42.8 °F 93% 29.67 in 15.0 mi West 8.1 mph - N/A   Overcast
7:00 PM 44.6 °F 40.2 °F 42.8 °F 93% 29.68 in 15.0 mi West 8.1 mph - N/A   Overcast
8:00 PM 44 °F - 42 °F 91% 29.69 in 15 mi West 8.1 mph - -   Partly Cloudy
8:00 PM 44.6 °F 40.2 °F 42.8 °F 93% 29.69 in 15.0 mi West 8.1 mph - N/A   Overcast
8:18 PM 44.6 °F 41.4 °F 42.8 °F 93% 29.70 in 15.0 mi West 5.8 mph - N/A Rain Light Rain Showers
9:00 PM 42.8 °F 38.0 °F 42.8 °F 100% 29.70 in 15.0 mi WNW 8.1 mph - N/A Rain Light Rain Showers
10:00 PM 42.8 °F 37.5 °F 41.0 °F 93% 29.71 in 15.0 mi West 9.2 mph - N/A Rain Light Rain Showers